Tracking 23758 objects as of 27-Oct-2021
HD Live streaming from Space Station
objects crossing your sky now

IRIDIUM 33 DEB

Track IRIDIUM 33 DEB now!
10-day predictions


NORAD ID: 46961
Int'l Code: 1997-051ABT
Perigee: 669.2 km
Apogee: 755.4 km
Inclination: 86.4 °
Period: 98.9 minutes
Semi major axis: 7083 km
RCS: Unknown
Launch date: September 14, 1997
Source: United States (US)
Launch site: TYURATAM MISSILE AND SPACE COMPLEX (TTMTR)

Note: This is SATELLITE DEBRIS
aabbcc
Your satellite tracking list
Your tracking list is empty




NASA's NSSDC Master Catalog

Two Line Element Set (TLE):
1 46961U 97051ABT 21298.39419278  .00004852  00000-0  10637-2 0  9991
2 46961  86.3910 341.5069 0060841  54.1902 306.4939 14.56308363 25946
Source of the keplerian elements: AFSPC